DLH455 EDDM-KLAX

Flight info

Callsign DLH455
Flight time N/A
Altitude 36000
Route GIVMI6Q GIVMI Y101 INBED DCT REKDI DCT LOHRE DCT ADKUV DCT DENUT L610 KOPUL Q60 OKSAW DCT TEWXI DCT LIPGO DCT KLY DCT ENULA DCT PIKIL/M083F380 NATA URTAK/N0485F380 DCT LAKES DCT 57N070W 55N080W 5230N09000W/N0483F400 DCT KP18A DCT KU06W DCT KD87U DCT KU54O DCT NORRA J107 BLD DCT HAKMN ANJLL4
Aircraft A388/J-SADE2E3GHIJ3J4J5LM1OP2RWXYZ/LB1D1

Departure

Time 2026-05-06 12:02
Airport Munich Airport (EDDM)

Arrival

Time N/A
Airport Los Angeles International Airport (KLAX)
Time Latitude Longitude Altitude Speed Heading
2026-05-06 10:06 48.35339 11.80029 1490 ft 0 kts 263°
2026-05-06 11:46 48.35340 11.80032 1490 ft 2 kts 263°
2026-05-06 11:46 48.35343 11.80070 1481 ft 4 kts 263°
2026-05-06 11:46 48.35345 11.80102 1475 ft 4 kts 259°
2026-05-06 11:47 48.35351 11.80123 1475 ft 4 kts 216°
2026-05-06 11:47 48.35363 11.80126 1475 ft 3 kts 173°
2026-05-06 11:47 48.35389 11.80122 1475 ft 4 kts 173°
2026-05-06 11:47 48.35401 11.80119 1475 ft 0 kts 173°
2026-05-06 11:52 48.35395 11.80121 1490 ft 3 kts 173°
2026-05-06 11:52 48.35353 11.80128 1475 ft 9 kts 173°
2026-05-06 11:52 48.35279 11.80153 1477 ft 13 kts 160°
2026-05-06 11:52 48.35199 11.80189 1482 ft 9 kts 171°
2026-05-06 11:53 48.35144 11.80171 1480 ft 7 kts 234°
2026-05-06 11:53 48.35129 11.80075 1480 ft 12 kts 263°
2026-05-06 11:53 48.35117 11.79922 1488 ft 16 kts 263°
2026-05-06 11:53 48.35104 11.79747 1490 ft 15 kts 263°
2026-05-06 11:54 48.35093 11.79605 1482 ft 11 kts 263°
2026-05-06 11:54 48.35114 11.79519 1482 ft 8 kts 335°
2026-05-06 11:54 48.35178 11.79502 1485 ft 11 kts 353°
2026-05-06 11:54 48.35268 11.79486 1480 ft 15 kts 353°
2026-05-06 11:55 48.35380 11.79467 1483 ft 17 kts 353°
2026-05-06 11:55 48.35500 11.79446 1482 ft 17 kts 353°
2026-05-06 11:55 48.35616 11.79425 1475 ft 17 kts 353°
2026-05-06 11:55 48.35736 11.79405 1481 ft 17 kts 353°
2026-05-06 11:56 48.35847 11.79386 1480 ft 14 kts 353°
2026-05-06 11:56 48.35934 11.79347 1479 ft 13 kts 345°
2026-05-06 11:56 48.36022 11.79328 1479 ft 11 kts 353°
2026-05-06 11:56 48.36079 11.79302 1475 ft 6 kts 303°
2026-05-06 11:57 48.36086 11.79234 1482 ft 8 kts 265°
2026-05-06 11:57 48.36077 11.79118 1476 ft 14 kts 263°
2026-05-06 11:57 48.36064 11.78953 1479 ft 18 kts 264°
2026-05-06 11:57 48.36049 11.78744 1479 ft 22 kts 263°
2026-05-06 11:58 48.36030 11.78500 1482 ft 24 kts 263°
2026-05-06 11:58 48.36011 11.78256 1490 ft 23 kts 264°
2026-05-06 11:58 48.35993 11.78020 1480 ft 22 kts 263°
2026-05-06 11:58 48.35976 11.77789 1477 ft 22 kts 263°
2026-05-06 11:59 48.35958 11.77565 1487 ft 21 kts 263°
2026-05-06 11:59 48.35946 11.77414 1477 ft 22 kts 263°
2026-05-06 11:59 48.35928 11.77181 1483 ft 22 kts 263°
2026-05-06 11:59 48.35914 11.76988 1482 ft 13 kts 264°
2026-05-06 12:00 48.35935 11.76870 1475 ft 12 kts 313°
2026-05-06 12:00 48.36007 11.76821 1485 ft 12 kts 351°
2026-05-06 12:00 48.36090 11.76804 1479 ft 12 kts 353°
2026-05-06 12:00 48.36174 11.76791 1490 ft 12 kts 354°
2026-05-06 12:01 48.36246 11.76782 1479 ft 8 kts
2026-05-06 12:01 48.36278 11.76822 1477 ft 6 kts 73°
2026-05-06 12:01 48.36290 11.76940 1479 ft 22 kts 82°
2026-05-06 12:01 48.36337 11.77548 1475 ft 96 kts 83°
2026-05-06 12:02 48.36439 11.78859 1478 ft 153 kts 82°
2026-05-06 12:02 48.36589 11.80653 1534 ft 184 kts 81°
2026-05-06 12:02 48.36734 11.82518 2132 ft 176 kts 81°
2026-05-06 12:02 48.36870 11.84318 2687 ft 176 kts 83°
2026-05-06 12:03 48.37013 11.86229 2964 ft 189 kts 83°
2026-05-06 12:03 48.37165 11.88264 3091 ft 202 kts 83°
2026-05-06 12:03 48.37330 11.90426 3199 ft 216 kts 83°
2026-05-06 12:03 48.37649 11.92760 3408 ft 240 kts 66°
2026-05-06 12:04 48.38729 11.94800 3687 ft 262 kts 36°
2026-05-06 12:04 48.40432 11.95811 4374 ft 269 kts
2026-05-06 12:04 48.42312 11.95532 4984 ft 279 kts 340°
2026-05-06 12:04 48.43940 11.93975 5694 ft 281 kts 312°
2026-05-06 12:05 48.44958 11.91490 6373 ft 281 kts 285°
2026-05-06 12:05 48.45557 11.88701 7087 ft 282 kts 295°
2026-05-06 12:05 48.46670 11.86240 7777 ft 287 kts 307°
2026-05-06 12:05 48.47957 11.83931 8532 ft 288 kts 307°
2026-05-06 12:06 48.49228 11.81589 9232 ft 290 kts 305°
2026-05-06 12:06 48.50452 11.79165 9899 ft 291 kts 303°
2026-05-06 12:06 48.51668 11.76628 10193 ft 308 kts 301°
2026-05-06 12:06 48.52954 11.73934 10375 ft 327 kts 306°
2026-05-06 12:07 48.54715 11.71611 10659 ft 344 kts 319°
2026-05-06 12:07 48.56667 11.69468 11200 ft 348 kts 320°
2026-05-06 12:07 48.58645 11.67330 11771 ft 351 kts 320°
2026-05-06 12:07 48.60630 11.65166 12347 ft 353 kts 320°
2026-05-06 12:08 48.62622 11.62968 12974 ft 356 kts 319°
2026-05-06 12:08 48.64625 11.60742 13579 ft 359 kts 319°
2026-05-06 12:08 48.66640 11.58492 14106 ft 362 kts 319°
2026-05-06 12:08 48.68678 11.56210 14591 ft 366 kts 319°
2026-05-06 12:09 48.70732 11.53909 15074 ft 369 kts 319°
2026-05-06 12:09 48.72803 11.51587 15551 ft 373 kts 319°
2026-05-06 12:09 48.74899 11.49234 15966 ft 377 kts 319°
2026-05-06 12:09 48.77014 11.46861 16471 ft 380 kts 319°
2026-05-06 12:10 48.79144 11.44468 16935 ft 383 kts 319°
2026-05-06 12:10 48.81290 11.42053 17418 ft 386 kts 319°
2026-05-06 12:10 48.83403 11.39675 18034 ft 384 kts 319°
2026-05-06 12:10 48.85593 11.37205 18416 ft 388 kts 319°
2026-05-06 12:11 48.87770 11.34746 18796 ft 391 kts 319°
2026-05-06 12:11 48.89964 11.32264 19169 ft 394 kts 319°
2026-05-06 12:11 48.92171 11.29767 19548 ft 397 kts 319°
2026-05-06 12:11 48.94365 11.27281 19926 ft 400 kts 319°
2026-05-06 12:12 48.96606 11.24739 20301 ft 403 kts 319°
2026-05-06 12:12 48.98859 11.22179 20680 ft 406 kts 319°
2026-05-06 12:12 49.01126 11.19602 21063 ft 408 kts 319°
2026-05-06 12:12 49.03409 11.17004 21414 ft 411 kts 319°
2026-05-06 12:13 49.05711 11.14382 21793 ft 414 kts 319°
2026-05-06 12:13 49.08027 11.11739 22141 ft 417 kts 319°
2026-05-06 12:13 49.10468 11.09282 22498 ft 424 kts 327°
2026-05-06 12:13 49.13157 11.07362 22882 ft 430 kts 336°
2026-05-06 12:14 49.16015 11.05899 23204 ft 435 kts 339°
2026-05-06 12:14 49.18895 11.04444 23540 ft 437 kts 338°
2026-05-06 12:14 49.21787 11.02953 23947 ft 439 kts 338°
2026-05-06 12:14 49.24674 11.01457 24457 ft 436 kts 338°
2026-05-06 12:15 49.27557 10.99963 24762 ft 439 kts 338°
2026-05-06 12:15 49.30463 10.98458 25054 ft 442 kts 338°
2026-05-06 12:15 49.33384 10.96947 25380 ft 444 kts 338°
2026-05-06 12:15 49.36283 10.95306 25686 ft 443 kts 330°
2026-05-06 12:16 49.38902 10.92876 26036 ft 438 kts 317°
2026-05-06 12:16 49.41111 10.89714 26389 ft 432 kts 305°
2026-05-06 12:16 49.42988 10.86128 26744 ft 432 kts 303°
2026-05-06 12:16 49.44884 10.82525 27145 ft 435 kts 303°
2026-05-06 12:17 49.46799 10.78913 27510 ft 437 kts 303°
2026-05-06 12:17 49.48730 10.75264 27747 ft 443 kts 303°
2026-05-06 12:17 49.50679 10.71568 28116 ft 446 kts 303°
2026-05-06 12:17 49.52636 10.67847 28492 ft 448 kts 303°
2026-05-06 12:18 49.54602 10.64102 28862 ft 451 kts 303°
2026-05-06 12:18 49.56577 10.60331 29225 ft 454 kts 303°
2026-05-06 12:18 49.58564 10.56532 29599 ft 457 kts 303°
2026-05-06 12:18 49.60564 10.52704 29957 ft 460 kts 302°
2026-05-06 12:19 49.62572 10.48855 30318 ft 461 kts 302°
2026-05-06 12:19 49.64585 10.44994 30708 ft 462 kts 302°
2026-05-06 12:19 49.66490 10.41028 31082 ft 458 kts 297°
2026-05-06 12:19 49.68276 10.36929 31370 ft 463 kts 298°
2026-05-06 12:20 49.70099 10.32803 31695 ft 465 kts 298°
2026-05-06 12:20 49.71927 10.28676 32084 ft 466 kts 298°
2026-05-06 12:20 49.73754 10.24544 32442 ft 467 kts 298°
2026-05-06 12:20 49.75586 10.20387 32824 ft 468 kts 298°
2026-05-06 12:21 49.77416 10.16224 33188 ft 469 kts 298°
2026-05-06 12:21 49.79250 10.12042 33524 ft 471 kts 298°
2026-05-06 12:21 49.81089 10.07840 33853 ft 472 kts 298°
2026-05-06 12:21 49.82935 10.03617 34092 ft 475 kts 298°
2026-05-06 12:22 49.84790 9.99365 34342 ft 478 kts 299°
2026-05-06 12:22 49.86664 9.95060 34440 ft 484 kts 299°
2026-05-06 12:22 49.88549 9.90728 34772 ft 485 kts 299°
2026-05-06 12:22 49.90434 9.86394 35165 ft 485 kts 299°
2026-05-06 12:23 49.92292 9.82113 35492 ft 485 kts 299°
2026-05-06 12:23 49.94173 9.77769 35769 ft 486 kts 300°
2026-05-06 12:23 49.97961 9.68997 35769 ft 487 kts 300°
2026-05-06 12:24 50.01731 9.60241 35794 ft 488 kts 299°
2026-05-06 12:24 50.05208 9.51602 35755 ft 486 kts 293°
2026-05-06 12:25 50.07816 9.41993 35754 ft 480 kts 284°
2026-05-06 12:25 50.09605 9.32022 35764 ft 478 kts 281°
2026-05-06 12:26 50.11383 9.22060 35748 ft 477 kts 281°
2026-05-06 12:26 50.13138 9.12086 35751 ft 478 kts 282°
2026-05-06 12:27 50.14876 9.02093 35752 ft 478 kts 282°
2026-05-06 12:27 50.16605 8.92087 35756 ft 478 kts 282°
2026-05-06 12:28 50.18298 8.82235 35758 ft 478 kts 281°
2026-05-06 12:28 50.20011 8.72209 35763 ft 478 kts 281°
2026-05-06 12:29 50.21719 8.62158 35765 ft 479 kts 281°
2026-05-06 12:29 50.23417 8.52104 35765 ft 479 kts 281°
2026-05-06 12:30 50.25106 8.42043 35779 ft 479 kts 281°
2026-05-06 12:30 50.26787 8.31973 35781 ft 480 kts 281°
2026-05-06 12:31 50.28467 8.21850 35800 ft 482 kts 281°
2026-05-06 12:31 50.30139 8.11722 35792 ft 481 kts 281°
2026-05-06 12:32 50.31799 8.01601 35783 ft 480 kts 281°
2026-05-06 12:32 50.33436 7.91553 35794 ft 479 kts 281°
2026-05-06 12:33 50.35074 7.81446 35779 ft 479 kts 281°
2026-05-06 12:33 50.36705 7.71320 35788 ft 479 kts 281°
2026-05-06 12:34 50.38327 7.61184 35790 ft 480 kts 281°
2026-05-06 12:34 50.39942 7.51032 35792 ft 480 kts 281°
2026-05-06 12:35 50.41548 7.40878 35814 ft 480 kts 281°
2026-05-06 12:35 50.43146 7.30704 35787 ft 481 kts 281°
2026-05-06 12:36 50.44738 7.20511 35787 ft 482 kts 281°
2026-05-06 12:36 50.46327 7.10270 35803 ft 482 kts 281°
2026-05-06 12:37 50.47906 7.00033 35801 ft 483 kts 281°
2026-05-06 12:37 50.49479 6.89770 35811 ft 484 kts 281°
2026-05-06 12:38 50.51219 6.79551 35815 ft 487 kts 288°
2026-05-06 12:38 50.53686 6.69633 35812 ft 487 kts 289°
2026-05-06 12:39 50.56141 6.59700 35809 ft 488 kts 288°
2026-05-06 12:39 50.58583 6.49745 35824 ft 488 kts 289°
2026-05-06 12:40 50.61013 6.39783 35824 ft 488 kts 289°
2026-05-06 12:40 50.63025 6.31501 35829 ft 488 kts 289°
2026-05-06 12:41 50.65441 6.21515 35833 ft 487 kts 289°
2026-05-06 12:41 50.67842 6.11544 35840 ft 486 kts 288°
2026-05-06 12:42 50.70231 6.01579 35835 ft 486 kts 289°
2026-05-06 12:42 50.72612 5.91599 35849 ft 486 kts 289°
2026-05-06 12:43 50.74984 5.81612 35852 ft 486 kts 288°
2026-05-06 12:43 50.77347 5.71615 35856 ft 486 kts 288°
2026-05-06 12:44 50.79705 5.61596 35866 ft 486 kts 288°
2026-05-06 12:44 50.82055 5.51564 35862 ft 487 kts 288°
2026-05-06 12:45 50.84401 5.41502 35871 ft 488 kts 288°
2026-05-06 12:46 50.87905 5.26385 35877 ft 487 kts 288°
2026-05-06 12:46 50.90228 5.16300 35883 ft 487 kts 288°
2026-05-06 12:47 50.92336 5.07110 35878 ft 487 kts 288°
2026-05-06 12:47 50.94641 4.97017 35872 ft 487 kts 288°
2026-05-06 12:48 50.96936 4.86916 35873 ft 486 kts 288°
2026-05-06 12:48 50.99219 4.76821 35872 ft 486 kts 288°
2026-05-06 12:49 51.01496 4.66705 35879 ft 486 kts 288°
2026-05-06 12:49 51.03764 4.56581 35878 ft 487 kts 288°
2026-05-06 12:50 51.06023 4.46446 35884 ft 487 kts 288°
2026-05-06 12:50 51.08275 4.36296 35884 ft 487 kts 288°
2026-05-06 12:51 51.10520 4.26121 35886 ft 487 kts 288°
2026-05-06 12:51 51.12750 4.15972 35886 ft 487 kts 288°
2026-05-06 12:52 51.14982 4.05762 35886 ft 487 kts 287°
2026-05-06 12:52 51.17196 3.95579 35894 ft 486 kts 287°
2026-05-06 12:53 51.19402 3.85388 35888 ft 486 kts 287°
2026-05-06 12:53 51.21599 3.75188 35896 ft 486 kts 287°
2026-05-06 12:54 51.23680 3.64940 35898 ft 485 kts 283°
2026-05-06 12:54 51.25097 3.54431 35904 ft 484 kts 281°
2026-05-06 12:55 51.26508 3.43919 35903 ft 484 kts 281°
2026-05-06 12:55 51.27895 3.33394 35924 ft 484 kts 280°
2026-05-06 12:56 51.29246 3.22857 35945 ft 484 kts 280°
2026-05-06 12:56 51.30584 3.12340 35958 ft 482 kts 279°
2026-05-06 12:57 51.31911 3.01840 35954 ft 481 kts 279°
2026-05-06 12:57 51.33226 2.91363 35942 ft 480 kts 279°
2026-05-06 12:58 51.34531 2.80890 35939 ft 479 kts 279°
2026-05-06 12:58 51.35822 2.70444 35917 ft 479 kts 279°
2026-05-06 12:59 51.37110 2.60002 35924 ft 478 kts 279°
2026-05-06 12:59 51.38386 2.49564 35925 ft 478 kts 279°
2026-05-06 13:00 51.39653 2.39118 35932 ft 478 kts 279°
2026-05-06 13:00 51.40912 2.28660 35951 ft 478 kts 279°
2026-05-06 13:01 51.42176 2.18204 35951 ft 478 kts 280°
2026-05-06 13:01 51.43456 2.07746 35946 ft 478 kts 279°
2026-05-06 13:02 51.44721 1.97282 35950 ft 478 kts 279°
2026-05-06 13:02 51.45954 1.86804 35950 ft 478 kts 279°
2026-05-06 13:03 51.47168 1.76325 35949 ft 478 kts 279°
2026-05-06 13:03 51.48371 1.65853 35949 ft 477 kts 279°
2026-05-06 13:04 51.49565 1.55380 35947 ft 477 kts 279°
2026-05-06 13:04 51.50749 1.44915 35956 ft 477 kts 279°
2026-05-06 13:05 51.51925 1.34444 35953 ft 476 kts 279°
2026-05-06 13:05 51.53091 1.23961 35953 ft 477 kts 279°
2026-05-06 13:06 51.54226 1.13474 35956 ft 476 kts 277°
2026-05-06 13:06 51.54906 1.02898 35950 ft 476 kts 275°
2026-05-06 13:07 51.55587 0.92318 35982 ft 476 kts 275°
2026-05-06 13:07 51.56255 0.81748 35983 ft 475 kts 275°
2026-05-06 13:08 51.56909 0.71176 35979 ft 475 kts 275°
2026-05-06 13:08 51.57552 0.60615 35963 ft 475 kts 275°
2026-05-06 13:09 51.58185 0.50058 35964 ft 474 kts 275°
2026-05-06 13:09 51.58808 0.39516 35970 ft 473 kts 275°
2026-05-06 13:10 51.59421 0.28989 35985 ft 473 kts 275°
2026-05-06 13:10 51.60023 0.18467 35996 ft 472 kts 275°
2026-05-06 13:11 51.60616 0.07944 35990 ft 472 kts 275°
2026-05-06 13:11 51.61199 -0.02575 36016 ft 472 kts 274°
2026-05-06 13:12 51.61773 -0.13093 36037 ft 472 kts 274°
2026-05-06 13:12 51.62412 -0.23598 36050 ft 472 kts 275°
2026-05-06 13:13 51.63070 -0.34113 36050 ft 472 kts 275°
2026-05-06 13:13 51.63706 -0.44629 35989 ft 472 kts 275°
2026-05-06 13:14 51.64328 -0.55142 35997 ft 472 kts 275°
2026-05-06 13:14 51.64940 -0.65660 35988 ft 472 kts 275°
2026-05-06 13:15 51.65544 -0.76184 35986 ft 472 kts 275°
2026-05-06 13:15 51.66137 -0.86702 35990 ft 472 kts 275°
2026-05-06 13:16 51.66722 -0.97238 35997 ft 472 kts 274°
2026-05-06 13:16 51.67297 -1.07764 36001 ft 472 kts 274°
2026-05-06 13:17 51.67862 -1.18290 35993 ft 472 kts 274°
2026-05-06 13:17 51.68417 -1.28815 36001 ft 471 kts 274°
2026-05-06 13:18 51.68963 -1.39328 35988 ft 471 kts 274°
2026-05-06 13:18 51.69499 -1.49850 35991 ft 471 kts 274°
2026-05-06 13:19 51.70048 -1.60363 35988 ft 471 kts 276°
2026-05-06 13:19 51.71475 -1.70662 36004 ft 472 kts 288°
2026-05-06 13:20 51.74077 -1.80314 36005 ft 474 kts 296°
2026-05-06 13:20 51.77031 -1.89816 36016 ft 474 kts 295°
2026-05-06 13:21 51.79960 -1.99344 36038 ft 474 kts 295°
2026-05-06 13:21 51.83241 -2.08577 36029 ft 474 kts 300°
2026-05-06 13:22 51.86726 -2.17623 36027 ft 474 kts 300°
2026-05-06 13:22 51.90197 -2.26681 36023 ft 473 kts 300°
2026-05-06 13:23 51.93098 -2.34267 36017 ft 473 kts 300°
2026-05-06 13:23 51.96551 -2.43327 36015 ft 472 kts 300°
2026-05-06 13:24 51.99995 -2.52398 36018 ft 472 kts 300°
2026-05-06 13:24 52.03426 -2.61464 36014 ft 471 kts 300°
2026-05-06 13:25 52.06851 -2.70548 36012 ft 471 kts 300°
2026-05-06 13:25 52.10261 -2.79625 36013 ft 470 kts 300°
2026-05-06 13:26 52.13664 -2.88715 36007 ft 470 kts 300°
2026-05-06 13:26 52.17056 -2.97810 36014 ft 470 kts 300°
2026-05-06 13:27 52.20440 -3.06913 36013 ft 470 kts 300°
2026-05-06 13:27 52.23816 -3.16029 36015 ft 470 kts 300°
2026-05-06 13:28 52.27186 -3.25160 36027 ft 470 kts 300°
2026-05-06 13:28 52.30548 -3.34305 36021 ft 469 kts 299°
2026-05-06 13:29 52.33902 -3.43460 36016 ft 469 kts 299°
2026-05-06 13:29 52.37248 -3.52627 36019 ft 469 kts 299°
2026-05-06 13:30 52.40583 -3.61796 36015 ft 469 kts 299°
2026-05-06 13:30 52.43907 -3.70968 36016 ft 468 kts 299°
2026-05-06 13:31 52.47225 -3.80157 36014 ft 468 kts 299°
2026-05-06 13:31 52.50535 -3.89359 36004 ft 468 kts 299°
2026-05-06 13:32 52.53840 -3.98580 36009 ft 468 kts 299°
2026-05-06 13:32 52.57136 -4.07811 36011 ft 468 kts 299°
2026-05-06 13:33 52.60425 -4.17054 36008 ft 468 kts 299°
2026-05-06 13:33 52.63708 -4.26314 36012 ft 468 kts 299°
2026-05-06 13:34 52.66960 -4.35524 36011 ft 468 kts 299°
2026-05-06 13:34 52.70249 -4.44872 36014 ft 469 kts 299°
2026-05-06 13:35 52.73491 -4.54120 36014 ft 469 kts 299°
2026-05-06 13:35 52.76747 -4.63441 36027 ft 469 kts 299°
2026-05-06 13:36 52.79996 -4.72780 36028 ft 469 kts 299°
2026-05-06 13:36 52.83236 -4.82126 36027 ft 469 kts 299°
2026-05-06 13:37 52.86469 -4.91488 36028 ft 469 kts 299°
2026-05-06 13:37 52.89694 -5.00862 36028 ft 469 kts 299°
2026-05-06 13:38 52.92911 -5.10248 36024 ft 468 kts 299°
2026-05-06 13:38 52.96121 -5.19647 36028 ft 468 kts 299°
2026-05-06 13:39 52.99318 -5.29047 36029 ft 468 kts 299°
2026-05-06 13:39 53.02513 -5.38473 36026 ft 468 kts 299°
2026-05-06 13:40 53.05700 -5.47896 36024 ft 468 kts 299°
2026-05-06 13:40 53.08900 -5.57318 36022 ft 468 kts 299°
2026-05-06 13:41 53.12119 -5.66725 36033 ft 468 kts 299°
2026-05-06 13:41 53.15330 -5.76149 36026 ft 468 kts 299°
2026-05-06 13:42 53.18534 -5.85599 36218 ft 470 kts 299°
2026-05-06 13:42 53.20136 -5.90340 36583 ft 470 kts 299°
2026-05-06 13:42 53.21739 -5.95091 36928 ft 470 kts 299°
2026-05-06 13:42 53.23341 -5.99850 37270 ft 470 kts 299°
2026-05-06 13:43 53.24941 -6.04609 37592 ft 471 kts 299°
2026-05-06 13:43 53.26541 -6.09381 37907 ft 471 kts 299°
2026-05-06 13:43 53.28152 -6.14179 38007 ft 476 kts 299°
2026-05-06 13:44 53.31370 -6.23661 37998 ft 465 kts 300°
2026-05-06 13:44 53.34576 -6.33119 37993 ft 468 kts 299°
2026-05-06 13:45 53.37773 -6.42610 37994 ft 468 kts 299°
2026-05-06 13:45 53.42553 -6.56882 38004 ft 468 kts 299°
2026-05-06 13:46 53.45727 -6.66407 37994 ft 468 kts 299°
2026-05-06 13:46 53.48895 -6.75948 37988 ft 468 kts 299°
2026-05-06 13:47 53.52057 -6.85507 37987 ft 468 kts 299°
2026-05-06 13:47 53.55213 -6.95087 37992 ft 469 kts 299°
2026-05-06 13:48 53.58364 -7.04687 37999 ft 469 kts 299°
2026-05-06 13:48 53.61503 -7.14292 37999 ft 469 kts 299°
2026-05-06 13:49 53.64640 -7.23926 37994 ft 468 kts 299°
2026-05-06 13:49 53.67765 -7.33562 38005 ft 468 kts 299°
2026-05-06 13:50 53.70878 -7.43201 37992 ft 468 kts 299°
2026-05-06 13:50 53.73983 -7.52848 37989 ft 467 kts 299°
2026-05-06 13:51 53.77075 -7.62498 38005 ft 466 kts 299°
2026-05-06 13:51 53.80152 -7.72138 37997 ft 465 kts 299°
2026-05-06 13:52 53.83216 -7.81777 37988 ft 465 kts 299°
2026-05-06 13:52 53.86267 -7.91412 37984 ft 463 kts 299°
2026-05-06 13:53 53.89303 -8.01038 37977 ft 463 kts 299°
2026-05-06 13:53 53.92331 -8.10677 37975 ft 463 kts 299°
2026-05-06 13:54 53.95347 -8.20315 37977 ft 463 kts 298°
2026-05-06 13:54 53.98385 -8.29961 37985 ft 462 kts 300°
2026-05-06 13:55 54.01639 -8.39385 37984 ft 462 kts 301°
2026-05-06 13:55 54.04912 -8.48794 37998 ft 461 kts 301°
2026-05-06 13:56 54.08149 -8.58219 37993 ft 461 kts 301°
2026-05-06 13:56 54.11370 -8.67664 37989 ft 461 kts 301°
2026-05-06 13:57 54.14577 -8.77123 38010 ft 461 kts 301°
2026-05-06 13:57 54.17773 -8.86588 38014 ft 460 kts 300°
2026-05-06 13:58 54.20958 -8.96062 38014 ft 460 kts 300°
2026-05-06 13:58 54.24132 -9.05538 37991 ft 459 kts 300°
2026-05-06 13:59 54.27295 -9.15018 37997 ft 459 kts 300°
2026-05-06 13:59 54.30447 -9.24501 37997 ft 458 kts 300°
2026-05-06 14:00 54.33592 -9.33999 38000 ft 458 kts 300°
2026-05-06 14:00 54.36725 -9.43500 38007 ft 458 kts 300°
2026-05-06 14:01 54.39853 -9.53023 38017 ft 458 kts 300°
2026-05-06 14:01 54.42973 -9.62558 38015 ft 458 kts 300°
2026-05-06 14:02 54.46082 -9.72098 38021 ft 457 kts 300°
2026-05-06 14:02 54.49180 -9.81641 38020 ft 457 kts 300°
2026-05-06 14:03 54.51747 -9.89575 38018 ft 456 kts 300°
2026-05-06 14:03 54.54827 -9.99131 38024 ft 456 kts 300°
2026-05-06 14:04 54.57897 -10.08696 38024 ft 456 kts 299°
2026-05-06 14:04 54.60959 -10.18270 38037 ft 456 kts 299°
2026-05-06 14:05 54.64008 -10.27844 38030 ft 455 kts 299°
2026-05-06 14:05 54.67043 -10.37412 38034 ft 454 kts 299°
2026-05-06 14:06 54.70068 -10.46984 38023 ft 453 kts 299°
2026-05-06 14:06 54.73079 -10.56554 38017 ft 453 kts 299°
2026-05-06 14:07 54.76081 -10.66130 38014 ft 452 kts 299°
2026-05-06 14:07 54.79073 -10.75712 38024 ft 452 kts 298°
2026-05-06 14:08 54.82057 -10.85309 38019 ft 452 kts 298°
2026-05-06 14:08 54.85031 -10.94910 38009 ft 452 kts 298°
2026-05-06 14:09 54.87996 -11.04524 38011 ft 452 kts 298°
2026-05-06 14:09 54.91273 -11.15192 38011 ft 452 kts 298°
2026-05-06 14:10 54.94223 -11.24839 38012 ft 452 kts 298°
2026-05-06 14:10 54.97166 -11.34500 38007 ft 452 kts 298°
2026-05-06 14:11 55.00101 -11.44175 37992 ft 452 kts 297°
2026-05-06 14:11 55.03031 -11.53873 37999 ft 452 kts 297°
2026-05-06 14:12 55.05935 -11.63522 38000 ft 452 kts 297°
2026-05-06 14:12 55.08851 -11.73251 38001 ft 453 kts 297°
2026-05-06 14:13 55.11762 -11.83007 38001 ft 453 kts 297°
2026-05-06 14:13 55.14666 -11.92778 38002 ft 453 kts 297°
2026-05-06 14:14 55.17561 -12.02560 38001 ft 453 kts 297°
2026-05-06 14:14 55.20453 -12.12372 37994 ft 454 kts 297°
2026-05-06 14:15 55.23335 -12.22189 37989 ft 453 kts 297°
2026-05-06 14:15 55.26210 -12.32024 37992 ft 453 kts 296°
2026-05-06 14:16 55.29078 -12.41878 37990 ft 453 kts 296°
2026-05-06 14:16 55.31937 -12.51744 37989 ft 453 kts 296°
2026-05-06 14:17 55.34790 -12.61627 37987 ft 454 kts 296°
2026-05-06 14:17 55.37635 -12.71529 37988 ft 454 kts 296°
2026-05-06 14:18 55.40472 -12.81441 37990 ft 454 kts 296°
2026-05-06 14:18 55.43302 -12.91371 37982 ft 454 kts 296°
2026-05-06 14:19 55.46122 -13.01312 37984 ft 454 kts 296°
2026-05-06 14:19 55.48480 -13.09654 37984 ft 454 kts 296°
2026-05-06 14:20 55.51286 -13.19622 37983 ft 454 kts 296°
2026-05-06 14:20 55.54064 -13.29535 37980 ft 454 kts 296°
2026-05-06 14:21 55.56853 -13.39528 37987 ft 453 kts 296°
2026-05-06 14:21 55.59635 -13.49537 37977 ft 454 kts 295°
2026-05-06 14:22 55.62406 -13.59556 37973 ft 453 kts 295°
2026-05-06 14:22 55.65167 -13.69576 37965 ft 453 kts 295°
2026-05-06 14:23 55.67921 -13.79618 37963 ft 453 kts 295°
2026-05-06 14:23 55.70665 -13.89666 37964 ft 453 kts 295°
2026-05-06 14:24 55.73403 -13.99738 37963 ft 453 kts 295°
2026-05-06 14:24 55.76133 -14.09825 37965 ft 453 kts 295°
2026-05-06 14:25 55.78855 -14.19928 37954 ft 453 kts 295°
2026-05-06 14:25 55.81567 -14.30034 37962 ft 453 kts 295°
2026-05-06 14:26 55.84267 -14.40143 37956 ft 452 kts 295°
2026-05-06 14:26 55.86955 -14.50254 37954 ft 452 kts 295°
2026-05-06 14:27 55.89634 -14.60376 37947 ft 452 kts 295°
2026-05-06 14:27 55.92306 -14.70514 37946 ft 452 kts 295°
2026-05-06 14:28 55.94973 -14.80655 37942 ft 451 kts 295°
2026-05-06 14:28 55.97625 -14.90800 37952 ft 450 kts 293°
2026-05-06 14:29 55.99815 -15.01269 37944 ft 450 kts 288°
2026-05-06 14:29 56.01427 -15.12060 37939 ft 450 kts 282°
2026-05-06 14:30 56.02736 -15.22979 37936 ft 449 kts 283°
2026-05-06 14:30 56.04069 -15.33884 37933 ft 449 kts 282°
2026-05-06 14:31 56.05369 -15.44801 37928 ft 449 kts 282°
2026-05-06 14:31 56.06650 -15.55724 37928 ft 448 kts 282°
2026-05-06 14:32 56.07921 -15.66660 37919 ft 449 kts 282°
2026-05-06 14:32 56.09183 -15.77603 37921 ft 449 kts 282°
2026-05-06 14:33 56.10437 -15.88562 37927 ft 449 kts 282°
2026-05-06 14:33 56.11680 -15.99528 37925 ft 449 kts 282°
2026-05-06 14:34 56.12914 -16.10498 37919 ft 449 kts 281°
2026-05-06 14:34 56.14137 -16.21467 37914 ft 448 kts 281°
2026-05-06 14:35 56.15349 -16.32438 37911 ft 448 kts 281°
2026-05-06 14:35 56.16552 -16.43419 37908 ft 449 kts 281°
2026-05-06 14:36 56.17745 -16.54405 37902 ft 449 kts 281°
2026-05-06 14:36 56.18929 -16.65399 37903 ft 449 kts 281°
2026-05-06 14:37 56.20104 -16.76404 37906 ft 449 kts 281°
2026-05-06 14:37 56.21269 -16.87419 37898 ft 449 kts 281°
2026-05-06 14:38 56.22426 -16.98454 37900 ft 450 kts 281°
2026-05-06 14:38 56.23572 -17.09495 37901 ft 449 kts 280°
2026-05-06 14:39 56.24709 -17.20538 37900 ft 449 kts 280°
2026-05-06 14:39 56.25834 -17.31574 37897 ft 448 kts 280°
2026-05-06 14:40 56.26948 -17.42607 37886 ft 448 kts 280°
2026-05-06 14:40 56.28052 -17.53643 37880 ft 448 kts 280°
2026-05-06 14:41 56.29148 -17.64694 37881 ft 449 kts 280°
2026-05-06 14:41 56.30234 -17.75758 37885 ft 449 kts 280°
2026-05-06 14:42 56.31311 -17.86834 37877 ft 449 kts 279°
2026-05-06 14:42 56.32377 -17.97916 37888 ft 450 kts 279°
2026-05-06 14:43 56.33437 -18.09027 37895 ft 450 kts 279°
2026-05-06 14:43 56.34487 -18.20156 37891 ft 450 kts 279°
2026-05-06 14:44 56.35526 -18.31276 37886 ft 450 kts 279°
2026-05-06 14:45 56.37064 -18.47955 37881 ft 449 kts 279°
2026-05-06 14:45 56.38076 -18.59065 37883 ft 449 kts 279°
2026-05-06 14:46 56.39077 -18.70176 37878 ft 448 kts 279°
2026-05-06 14:46 56.40068 -18.81288 37870 ft 449 kts 279°
2026-05-06 14:47 56.41044 -18.92343 37875 ft 449 kts 278°
2026-05-06 14:47 56.42024 -19.03565 37884 ft 450 kts 278°
2026-05-06 14:48 56.42988 -19.14732 37891 ft 451 kts 278°
2026-05-06 14:48 56.43946 -19.25945 37900 ft 451 kts 278°
2026-05-06 14:49 56.44892 -19.37152 37900 ft 451 kts 278°
2026-05-06 14:49 56.45829 -19.48363 37888 ft 451 kts 278°
2026-05-06 14:50 56.46755 -19.59580 37896 ft 451 kts 278°
2026-05-06 14:50 56.47672 -19.70805 37891 ft 451 kts 278°
2026-05-06 14:51 56.48579 -19.82038 37896 ft 451 kts 278°
2026-05-06 14:51 56.49481 -19.93266 37898 ft 451 kts 278°
2026-05-06 14:52 56.50445 -20.04492 37890 ft 451 kts 282°
2026-05-06 14:52 56.52064 -20.15485 37890 ft 452 kts 285°
2026-05-06 14:53 56.53725 -20.26480 37895 ft 453 kts 284°
2026-05-06 14:53 56.55311 -20.37536 37914 ft 453 kts 283°
2026-05-06 14:54 56.56867 -20.48614 37912 ft 453 kts 283°
2026-05-06 14:54 56.58410 -20.59694 37917 ft 453 kts 283°
2026-05-06 14:55 56.59938 -20.70783 37909 ft 453 kts 283°
2026-05-06 14:55 56.61456 -20.81894 37891 ft 453 kts 283°
2026-05-06 14:56 56.62963 -20.93014 37897 ft 454 kts 283°
2026-05-06 14:56 56.64461 -21.04142 37903 ft 454 kts 283°
2026-05-06 14:57 56.65952 -21.15301 37921 ft 454 kts 283°
2026-05-06 14:57 56.67433 -21.26479 37922 ft 455 kts 283°
2026-05-06 14:58 56.68906 -21.37664 37921 ft 455 kts 283°
2026-05-06 14:58 56.70367 -21.48854 37910 ft 454 kts 282°
2026-05-06 14:59 56.71818 -21.60055 37904 ft 455 kts 282°
2026-05-06 14:59 56.73260 -21.71271 37917 ft 455 kts 282°
2026-05-06 15:00 56.74453 -21.80614 37920 ft 456 kts 282°
2026-05-06 15:00 56.75880 -21.91866 37930 ft 456 kts 282°
2026-05-06 15:01 56.77298 -22.03137 37938 ft 456 kts 282°
2026-05-06 15:01 56.78705 -22.14416 37928 ft 456 kts 282°
2026-05-06 15:02 56.80103 -22.25711 37927 ft 457 kts 282°
2026-05-06 15:02 56.81493 -22.37027 37932 ft 457 kts 282°
2026-05-06 15:03 56.82873 -22.48362 37933 ft 457 kts 282°
2026-05-06 15:03 56.84244 -22.59710 37948 ft 458 kts 282°
2026-05-06 15:04 56.85605 -22.71069 37948 ft 458 kts 282°
2026-05-06 15:04 56.86955 -22.82434 37950 ft 458 kts 281°
2026-05-06 15:05 56.88297 -22.93823 37938 ft 458 kts 281°
2026-05-06 15:05 56.89630 -23.05236 37953 ft 460 kts 281°
2026-05-06 15:06 56.90955 -23.16675 37967 ft 460 kts 281°
2026-05-06 15:06 56.92270 -23.28132 37967 ft 460 kts 281°
2026-05-06 15:07 56.93575 -23.39592 37973 ft 460 kts 281°
2026-05-06 15:07 56.94869 -23.51058 37976 ft 460 kts 281°
2026-05-06 15:08 56.96153 -23.62533 37960 ft 460 kts 281°
2026-05-06 15:08 56.97426 -23.74026 37974 ft 461 kts 281°
2026-05-06 15:09 56.98692 -23.85543 37972 ft 461 kts 281°
2026-05-06 15:09 56.99948 -23.97087 37978 ft 462 kts 281°
2026-05-06 15:10 57.01195 -24.08646 37997 ft 462 kts 281°
2026-05-06 15:10 57.02432 -24.20217 38001 ft 462 kts 281°
2026-05-06 15:11 57.03649 -24.31710 37993 ft 462 kts 281°
2026-05-06 15:11 57.04874 -24.43390 37993 ft 462 kts 280°
2026-05-06 15:12 57.06072 -24.54911 38000 ft 463 kts 280°
2026-05-06 15:12 57.07268 -24.66536 38002 ft 463 kts 280°
2026-05-06 15:13 57.08454 -24.78175 38006 ft 463 kts 280°
2026-05-06 15:13 57.09630 -24.89825 38019 ft 464 kts 280°
2026-05-06 15:14 57.10796 -25.01490 38022 ft 464 kts 280°
2026-05-06 15:14 57.11949 -25.13145 38025 ft 463 kts 280°
2026-05-06 15:15 57.13092 -25.24805 38024 ft 463 kts 280°
2026-05-06 15:15 57.14222 -25.36462 38031 ft 462 kts 280°
2026-05-06 15:16 57.15340 -25.48112 38037 ft 462 kts 280°
2026-05-06 15:16 57.16448 -25.59771 38029 ft 462 kts 280°
2026-05-06 15:17 57.17545 -25.71437 38036 ft 462 kts 280°
2026-05-06 15:17 57.18632 -25.83116 38027 ft 463 kts 279°
2026-05-06 15:18 57.19709 -25.94824 38041 ft 464 kts 280°
2026-05-06 15:18 57.20778 -26.06557 38056 ft 464 kts 279°
2026-05-06 15:19 57.21837 -26.18314 38060 ft 465 kts 279°
2026-05-06 15:19 57.22886 -26.30088 38060 ft 465 kts 279°
2026-05-06 15:20 57.23925 -26.41882 38072 ft 465 kts 279°
2026-05-06 15:20 57.24954 -26.53687 38059 ft 466 kts 279°
2026-05-06 15:21 57.25972 -26.65505 38076 ft 466 kts 279°
2026-05-06 15:21 57.26981 -26.77352 38080 ft 467 kts 279°
2026-05-06 15:22 57.27979 -26.89210 38085 ft 467 kts 279°
2026-05-06 15:22 57.28966 -27.01079 38096 ft 467 kts 279°
2026-05-06 15:23 57.29942 -27.12952 38100 ft 467 kts 279°
2026-05-06 15:23 57.30860 -27.24254 38090 ft 467 kts 279°
2026-05-06 15:24 57.31814 -27.36141 38085 ft 467 kts 279°
2026-05-06 15:24 57.32758 -27.48039 38099 ft 468 kts 279°
2026-05-06 15:25 57.33692 -27.59969 38110 ft 468 kts 279°
2026-05-06 15:25 57.34615 -27.71908 38115 ft 469 kts 279°
2026-05-06 15:26 57.35527 -27.83856 38137 ft 469 kts 279°
2026-05-06 15:26 57.36428 -27.95812 38110 ft 469 kts 279°
2026-05-06 15:27 57.37317 -28.07777 38124 ft 469 kts 278°
2026-05-06 15:27 57.38197 -28.19758 38127 ft 469 kts 278°
2026-05-06 15:28 57.39065 -28.31757 38120 ft 470 kts 278°
2026-05-06 15:28 57.39923 -28.43767 38134 ft 470 kts 278°